This is the latest recevied weather packets stored in our database for station/object NR0A-4. If no packets are shown the sender has not sent any weather packets the latest 10 day(s).
| Time | Temp. | Humidity | Pressure | Rain* | Wind** | Luminosity | Snow |
|---|---|---|---|---|---|---|---|
| 1788379219 | 33.89° C | 54% | 1010.1 hPa | 0 mm | - | 691 W/m² | - |
| 1788378904 | 33.89° C | 54% | 1010.1 hPa | 0 mm | - | 701 W/m² | - |
| 1788378604 | 33.33° C | 56% | 1010.1 hPa | 0 mm | - | 708 W/m² | - |
| 1788378303 | 33.33° C | 55% | 1010.2 hPa | 0 mm | - | 714 W/m² | - |
| 1788378004 | 32.78° C | 55% | 1010.2 hPa | 0 mm | - | 717 W/m² | - |
| 1788377704 | 32.78° C | 55% | 1010.3 hPa | 0 mm | - | 724 W/m² | - |
| 1788377404 | 32.78° C | 55% | 1010.3 hPa | 0 mm | - | 726 W/m² | - |
| 1788377104 | 32.78° C | 55% | 1010.3 hPa | 0 mm | - | 731 W/m² | - |
| 1788376803 | 32.78° C | 55% | 1010.3 hPa | 0 mm | - | 733 W/m² | - |
| 1788376504 | 32.78° C | 55% | 1010.3 hPa | 0 mm | - | 744 W/m² | - |
| 1788376204 | 32.78° C | 55% | 1010.4 hPa | 0 mm | - | 744 W/m² | - |
| 1788375904 | 32.78° C | 57% | 1010.3 hPa | 0 mm | - | 742 W/m² | - |
| 1788375604 | 32.22° C | 59% | 1010.4 hPa | 0 mm | - | 744 W/m² | - |
| 1788375303 | 32.78° C | 57% | 1010.4 hPa | 0 mm | - | 747 W/m² | - |
| 1788375004 | 32.22° C | 59% | 1010.3 hPa | 0 mm | - | 749 W/m² | - |
| 1788374704 | 32.22° C | 58% | 1010.4 hPa | 0 mm | - | 749 W/m² | - |
| 1788374404 | 32.22° C | 57% | 1010.4 hPa | 0 mm | - | 749 W/m² | - |
| 1788374103 | 31.67° C | 56% | 1010.5 hPa | 0 mm | - | 749 W/m² | - |
| 1788373804 | 31.67° C | 57% | 1010.5 hPa | 0 mm | - | 747 W/m² | - |
| 1788373503 | 31.67° C | 57% | 1010.6 hPa | 0 mm | - | 749 W/m² | - |
| 1788373204 | 31.11° C | 56% | 1010.6 hPa | 0 mm | - | 744 W/m² | - |
| 1788372904 | 31.11° C | 56% | 1010.7 hPa | 0 mm | - | 745 W/m² | - |
| 1788372604 | 31.11° C | 58% | 1010.7 hPa | 0 mm | - | 744 W/m² | - |
| 1788372304 | 30.56° C | 55% | 1010.8 hPa | 0 mm | - | 740 W/m² | - |
| 1788372004 | 30.56° C | 58% | 1010.7 hPa | 0 mm | - | 740 W/m² | - |
* Rain latest hour (hover to see other rain measurements)
** Current wind speed in m/s (hover to see current wind gust speed)